Regional Weather Roundup
Issued by NWS

Home | Current Version | Previous Version | Graphics & Text | Print | Product List | Glossary On
Versions: 1 2 3 4 5 6 7 8 9 10 11 12 13 14 15 16 17 18 19 20 21 22 23 24 25 26 27 28 29 30 31 32 33 34 35 36 37 38 39 40 41 42 43 44 45 46 47 48 49 50
000
ASUS43 KDMX 010303
RWRIA

WEATHER ROUNDUP FOR IOWA
NATIONAL WEATHER SERVICE DES MOINES IA
1000 PM CDT TUE MAY 31 2016

NOTE: "FAIR" INDICATES FEW OR NO CLOUDS BELOW 12,000 FEET WITH NO
SIGNIFICANT WEATHER AND/OR OBSTRUCTIONS TO VISIBILITY.

* - THESE STATIONS ARE NOT NWS STATIONS...THUS NOT UNDER NWS
QUALITY CONTROL.  THEY ALSO DO NOT REPORT WEATHER SUCH
AS PRECIPITATION OR FOG.

IAZ001>003-012>014-020>022-031>034-043>046-010400-
   NORTHWEST IOWA

CITY           SKY/WX    TMP DP  RH WIND       PRES   REMARKS
CARROLL *      CLEAR     63  52  67 CALM      29.94R
DENISON *      CLEAR     63  54  72 E5        29.93R
LE MARS *      CLEAR     64  52  63 S7        29.91R
ORANGE CITY *  CLEAR     64  54  68 S5        29.91R
SHELDON *      CLEAR     64  52  63 S10       29.89R
SIOUX CITY     CLEAR     62  53  72 S5        29.92R
SPENCER        CLEAR     62  52  69 S8        29.91R
STORM LAKE *   CLEAR     64  52  63 SW6       29.94R
$$

IAZ055>058-069>071-079>083-090>094-010400-
   SOUTHWEST IOWA

CITY           SKY/WX    TMP DP  RH WIND       PRES   REMARKS
ATLANTIC *     CLEAR     63  57  82 CALM      29.95R
AUDUBON *      CLEAR     61  55  82 CALM      29.96R
CLARINDA *       N/A     68  61  77 MISG      29.97R
COUNCIL BLFS * CLEAR     68  54  60 CALM      29.96R
CRESTON *      CLOUDY    66  64  94 S5        29.97R
HARLAN  *      CLEAR     63  55  77 CALM      29.98R
LAMONI         PTCLDY    65  64  97 N3        29.95R
RED OAK *      CLEAR     64  59  82 CALM      29.96R
SHENANDOAH *   CLEAR     68  61  77 CALM      29.97R
$$

IAZ047>049-059>061-072>074-084-010400-
   CENTRAL IOWA

CITY           SKY/WX    TMP DP  RH WIND       PRES   REMARKS
AMES           PTCLDY    64  63  96 S3        29.93R FOG
ANKENY *       CLOUDY    64  64 100 CALM      29.93R
BOONE *        PTCLDY    66  63  88 CALM      29.93R
CHARITON *     CLOUDY    66  64  94 CALM      29.95R
DES MOINES     PTCLDY    68  63  84 CALM      29.93R
GRINNELL*      CLOUDY    64  63  94 W3        29.94R
KNOXVILLE *    CLOUDY    64  63  94 CALM      29.93R
MARSHALLTOWN   MOCLDY    64  64 100 CALM      29.93R
NEWTON *       CLOUDY    64  64 100 CALM      29.93R
PELLA *        CLOUDY    65  63  95 CALM      29.95R
PERRY *          N/A     68  63  83 W5        29.93R
$$

IAZ004>006-015-016-023>025-035-036-010400-
   NORTH CENTRAL IOWA

CITY           SKY/WX    TMP DP  RH WIND       PRES   REMARKS
ALGONA *       CLEAR     63  57  82 SW3       29.92R
CLARION *      CLEAR     64  63  94 SW5       29.93R
ESTHERVILLE    CLEAR     60  54  80 S7        29.90R
FORT DODGE *   CLEAR     61  52  72 CALM      29.94R
MASON CITY     PTCLDY    62  60  93 SW3       29.93R
FOREST CITY *  CLEAR     59  57  94 CALM      29.91R
WEBSTER CITY * PTCLDY    64  61  88 SW6       29.92R
IOWA FALLS *     N/A     64  61  88 CALM      29.94R
$$

IAZ007>011-017>019-026>030-037>042-050>054-066-010400-
   NORTHEAST IOWA

CITY           SKY/WX    TMP DP  RH WIND       PRES   REMARKS
CEDAR RAPIDS   CLOUDY    65  65 100 SE6       29.93R
CHARLES CITY * CLOUDY    63  63 100 CALM      29.92R FOG
CLINTON *      TSTM      68  63  84 S15G30    29.97R
DECORAH *      CLOUDY    63  63 100 CALM      29.91R
DUBUQUE        CLOUDY    67  63  87 NW5       29.93R
MONTICELLO *   CLOUDY    64  63  94 SW5       29.95R
OELWEIN *      CLOUDY    64 N/A N/A SE6       29.93R
WATERLOO       CLOUDY    65  63  93 S3        29.92R
$$

IAZ064-065-067-068-078-010400-
   EAST CENTRAL IOWA

CITY           SKY/WX    TMP DP  RH WIND       PRES   REMARKS
DAVENPORT      LGT RAIN  69  65  86 SE9       29.93R
IOWA CITY      RAIN      66  63  90 W3        29.94F FOG
MT. PLEASANT * CLOUDY    73  68  83 W7        29.92R
MUSCATINE *    CLOUDY    72  63  73 NW14G24   29.93R
QUAD CITIES    CLOUDY    71  65  81 VRB6      29.92R
$$

IAZ062-063-075>077-085>089-095>099-010400-
   SOUTHEAST IOWA

CITY           SKY/WX    TMP DP  RH WIND       PRES   REMARKS
BURLINGTON     CLOUDY    72  65  78 S6        29.91R
FAIRFIELD *      N/A    N/A N/A N/A MISG        N/A
FORT MADISON * MOCLDY    72  64  78 S3        29.92R
KEOKUK *       MOCLDY    72  64  78 S3        29.91R
OSKALOOSA *      N/A     66  64  94 W5        29.93R
OTTUMWA        CLOUDY    65  63  93 SE3       29.93R
WASHINGTON *   RAIN      66 N/A N/A W7G14     29.94R
$$

ABBREVIATIONS USED IN REMARKS
   TC - TEMPERATURES IN CELSIUS
  WCI - WIND CHILL INDEX
   HX - HEAT INDEX
  VSB - VISIBILITY
$$





USA.gov is the U.S. government's official web portal to all federal, state and local government web resources and services.